Theta_e
306 317 314 307 309 306 305 306 303 301 301 304 305 305 306 304 304 301 302 304 300 301 304 304 303 301 299 298 297 298 299 298 296 294 293 291 291 290 290 289 286 286 286 285 285 285 284 284 284 283 283 283 282 282 282 282 282 282 282 281 281 280 280 280 280 280 280 280 280 280 280 280 280 280 280 280 280 280 281 282 282 282 282 281 281 281
309 314 306 305 308 304 304 306 304 303 303 306 306 306 304 302 302 300 299 301 298 299 303 303 302 299 297 298 299 298 298 298 296 294 293 291 291 290 289 288 286 286 286 285 284 284 284 284 283 283 283 283 282 282 282 282 282 282 281 280 280 280 279 279 279 279 279 279 279 279 279 279 279 279 279 280 280 280 281 281 281 281 281 281 281 282
314 308 301 302 302 302 306 305 304 305 303 304 304 303 302 300 300 299 302 303 299 299 300 300 299 298 298 298 298 297 296 296 295 294 292 291 291 290 288 287 286 286 286 285 284 284 284 284 283 283 283 283 282 282 282 282 282 281 280 280 279 279 279 279 279 279 279 278 278 279 279 279 279 279 279 279 280 280 280 281 281 281 281 281 281 281
311 305 301 302 302 305 308 304 303 304 303 303 301 301 301 300 298 299 303 302 299 298 299 299 298 297 299 300 297 295 293 293 293 293 292 291 290 289 287 287 286 286 286 285 284 284 284 283 283 283 283 283 282 282 282 282 281 280 279 279 279 279 279 278 278 278 278 278 278 278 278 278 278 278 278 279 279 279 280 280 280 280 280 280 280 280
307 304 300 303 305 306 306 304 304 303 303 303 301 301 302 301 299 298 299 298 298 299 297 298 299 298 302 304 299 295 293 292 291 291 291 290 289 287 287 286 286 286 286 285 284 284 284 284 283 283 283 283 282 282 281 281 280 279 279 279 279 279 278 278 278 278 278 278 278 277 277 277 277 277 277 278 278 278 279 279 279 279 279 279 279 280
309 303 299 303 305 304 302 301 302 300 301 303 302 303 301 300 300 298 298 298 298 299 297 297 299 299 301 303 300 295 293 291 290 289 289 288 287 286 286 286 286 286 285 284 284 284 284 284 283 283 283 283 282 282 281 280 280 279 279 279 279 278 278 278 278 278 278 277 277 277 277 277 276 276 276 277 277 277 277 278 278 278 278 278 279 279
306 302 301 302 302 303 302 300 299 299 300 303 302 302 300 300 300 299 299 299 299 299 297 297 299 299 298 299 299 295 292 291 289 287 286 286 285 286 285 285 285 284 284 284 284 284 284 284 283 283 283 282 282 281 281 280 279 279 279 279 278 278 278 278 277 277 277 277 277 276 276 276 276 276 276 276 276 276 277 277 278 277 278 278 278 278
304 303 305 305 302 303 304 301 299 298 300 303 302 299 300 300 300 300 299 298 299 298 297 297 297 298 298 299 298 295 294 292 289 287 286 285 285 285 285 285 284 284 284 284 284 284 284 284 283 283 283 282 282 281 281 280 279 279 278 278 278 278 278 277 277 277 277 276 276 276 276 276 276 276 276 276 276 276 277 277 277 277 277 277 277 278
303 303 304 304 303 305 303 299 298 299 300 302 301 298 299 300 299 299 298 299 299 296 297 297 297 298 300 298 296 296 296 293 291 288 286 286 285 286 285 284 284 284 284 284 284 284 284 283 283 283 283 282 282 281 281 280 279 279 278 278 278 278 277 277 277 277 276 276 276 276 276 275 275 275 275 275 276 276 276 276 276 276 275 276 276 277
301 301 302 301 303 305 303 300 301 301 300 301 300 297 298 298 297 297 297 298 297 297 299 299 296 298 299 296 296 299 299 296 294 290 287 287 286 286 285 284 284 284 284 284 284 284 283 283 283 283 283 282 282 281 280 279 279 278 278 278 278 278 277 277 277 276 276 276 276 276 275 275 275 275 275 275 275 275 275 275 275 275 275 276 276 276
301 300 301 301 302 301 301 301 302 301 300 301 300 298 298 297 297 299 298 297 297 301 304 301 297 297 297 296 295 296 296 294 294 291 288 287 286 285 285 285 285 284 284 284 284 284 284 283 283 283 283 282 282 281 280 279 279 278 278 278 278 277 277 277 277 276 276 276 276 275 275 275 274 274 274 274 275 275 275 275 275 275 275 276 276 276
305 304 302 301 302 299 299 301 301 299 299 299 299 298 298 297 298 303 305 302 300 300 300 299 297 297 297 296 293 290 289 290 292 291 288 287 286 285 286 286 285 285 284 284 284 284 284 283 283 283 282 282 281 280 280 279 279 278 278 278 277 277 277 277 276 276 276 275 275 275 275 274 274 274 274 274 274 274 274 274 274 274 275 275 275 275
306 305 300 300 301 298 298 300 300 302 301 298 298 298 299 299 299 301 302 301 300 298 297 297 296 296 297 295 291 288 287 287 288 288 287 286 286 286 287 286 286 285 285 284 284 284 284 283 283 283 282 282 281 280 279 279 278 278 278 278 277 277 277 276 276 276 276 275 275 274 274 274 274 274 274 274 273 274 274 274 273 273 273 274 274 274
305 306 301 300 300 297 299 299 300 302 299 298 299 298 299 299 298 298 297 297 299 298 298 296 294 296 297 295 290 287 286 286 285 286 286 285 286 286 286 286 286 285 285 284 284 284 284 283 283 282 282 281 280 279 279 279 278 278 278 278 277 277 276 276 276 276 275 275 274 274 274 274 273 273 273 273 273 273 273 273 273 273 273 274 274 273
303 305 303 301 299 298 300 298 298 299 298 298 297 297 299 299 297 297 297 298 298 297 297 295 296 300 299 294 291 288 286 285 285 286 286 285 285 285 285 285 285 285 285 284 284 284 283 283 283 282 282 281 280 279 279 278 278 278 278 278 277 277 276 276 276 275 275 274 274 274 273 273 273 272 272 272 272 272 272 272 272 272 273 273 273 273
301 303 302 300 298 298 299 298 297 298 298 298 296 298 301 300 298 298 298 298 297 296 296 296 298 300 295 291 290 289 286 285 286 287 286 285 285 285 285 285 285 285 285 284 284 284 283 283 282 282 282 281 279 279 279 278 278 278 278 277 277 276 276 276 275 275 274 274 274 273 273 272 272 272 272 271 271 271 271 272 272 272 273 273 273 273
301 302 302 300 299 298 298 298 298 298 299 299 298 298 298 296 297 298 297 297 297 296 296 297 298 297 294 291 289 288 287 287 287 287 285 285 285 285 285 285 285 285 285 284 284 284 283 283 282 282 281 280 279 279 279 278 278 278 277 277 277 276 276 276 275 275 274 273 273 272 272 272 271 271 271 271 271 271 271 272 272 272 272 273 273 273
299 301 301 298 300 299 296 297 299 297 297 299 300 298 296 296 298 298 297 296 296 296 296 296 296 295 295 294 289 287 289 288 287 287 286 286 286 286 286 286 285 285 284 284 284 283 283 282 282 282 280 279 279 279 279 278 278 278 277 277 276 276 276 275 275 274 274 273 272 272 272 271 271 270 270 271 271 271 272 272 272 272 272 272 272 272
298 301 301 296 298 299 296 297 300 298 296 296 297 297 297 298 299 298 296 295 296 296 295 296 295 295 297 295 290 288 289 288 287 287 286 286 286 286 285 285 285 284 284 283 283 283 282 282 281 280 279 279 279 279 278 278 278 277 277 277 276 276 275 275 274 273 273 272 272 271 271 270 270 270 270 271 271 271 271 271 271 271 272 272 272 272
298 300 303 297 295 298 299 299 299 299 297 296 297 298 297 297 297 296 295 295 296 295 295 295 295 295 295 293 290 288 287 287 287 286 286 286 286 285 285 285 284 284 283 283 282 282 281 281 280 279 279 279 279 279 278 278 277 277 277 276 276 275 275 274 273 273 272 271 271 271 270 270 270 270 271 271 271 270 270 270 271 271 271 271 271 272
298 299 302 300 297 298 300 298 296 296 297 298 300 299 298 297 296 295 294 294 295 294 294 294 294 294 292 289 288 288 287 287 287 286 286 286 285 285 284 284 284 283 282 282 281 281 280 279 279 279 280 279 279 278 278 277 277 277 276 276 275 275 274 273 272 272 271 271 270 270 270 270 270 270 270 270 270 270 270 270 270 271 271 271 271 271
298 299 299 299 298 299 299 297 295 294 295 298 299 297 297 296 295 294 294 294 294 293 293 292 293 294 291 288 288 287 286 286 286 286 285 285 284 284 283 283 283 282 282 282 281 280 280 279 280 280 279 279 278 277 277 277 277 276 276 276 275 274 273 272 271 271 270 270 270 269 269 269 270 270 270 269 269 270 270 270 270 270 270 271 271 271
297 298 298 300 299 298 297 297 295 294 294 296 297 296 297 295 294 294 294 293 293 292 292 292 293 293 289 287 287 286 286 286 285 285 285 284 284 283 283 282 282 282 281 281 281 280 280 280 280 280 279 278 278 277 277 276 276 276 276 275 273 272 272 271 270 270 270 269 269 269 269 269 269 269 269 269 269 269 269 269 269 270 270 270 271 271
296 297 297 299 299 297 297 295 294 295 295 296 296 295 295 294 292 292 292 291 291 292 292 291 292 293 289 288 287 287 286 285 285 285 284 284 283 282 282 282 282 281 281 280 280 279 280 279 279 279 278 278 277 277 276 276 276 275 274 273 272 271 271 270 269 269 269 269 269 269 269 269 269 269 269 269 269 269 269 269 269 269 269 270 270 270
296 299 299 299 299 299 299 296 295 295 295 295 295 295 294 292 291 291 291 290 291 292 291 290 291 292 290 290 289 287 286 285 285 284 283 283 282 282 282 281 281 280 280 279 278 278 279 279 278 278 278 277 276 276 276 276 275 274 272 271 271 270 270 269 269 268 268 268 269 268 268 268 268 268 268 269 269 268 268 268 268 268 268 268 269 269
295 297 298 300 300 299 299 299 297 296 295 294 295 294 292 291 290 290 291 290 291 291 290 290 291 291 290 290 288 286 285 285 284 283 283 282 282 282 281 281 280 279 278 278 277 277 278 277 278 278 277 276 276 276 275 274 273 272 271 270 270 269 269 268 268 268 268 268 268 268 267 268 268 268 268 268 268 267 267 267 267 267 267 267 268 269
296 296 296 300 301 299 298 297 296 296 295 294 294 292 290 290 289 290 290 290 289 289 289 290 290 290 290 289 287 285 285 284 283 282 282 282 281 281 280 280 279 278 277 277 277 277 276 276 277 277 276 275 275 275 274 272 271 270 270 269 269 268 268 268 267 268 268 268 267 267 267 267 268 268 268 267 266 266 266 266 266 266 266 267 267 268
298 299 297 298 299 298 297 296 294 294 293 292 293 291 289 289 289 289 289 289 289 289 289 290 289 290 289 287 286 285 284 283 282 282 281 281 280 280 280 279 278 276 276 275 275 276 276 275 275 275 275 275 274 273 272 271 270 269 269 268 268 267 267 267 267 268 268 267 267 266 267 267 267 267 266 266 265 265 265 265 265 266 266 267 268 268
298 300 296 295 296 296 294 293 293 292 292 292 291 289 288 288 288 288 288 288 288 288 289 289 289 289 287 286 285 284 283 282 282 281 280 279 279 279 279 277 276 275 275 275 275 275 275 274 274 274 274 273 272 271 270 270 269 268 268 267 267 267 267 267 267 267 267 266 266 266 266 267 266 266 265 265 264 264 265 265 265 266 266 267 267 268
295 300 296 293 294 294 292 293 293 292 292 291 289 287 287 287 287 288 288 287 287 288 289 288 288 287 285 285 284 283 282 282 281 281 279 278 278 279 277 276 275 275 274 274 275 274 274 273 273 273 273 272 271 270 269 269 268 267 267 266 266 266 267 267 267 266 266 266 266 266 266 266 265 265 264 264 264 264 264 265 265 265 266 266 266 267
293 297 296 293 293 294 293 294 294 293 292 290 287 287 287 287 287 287 287 288 288 288 288 287 286 285 285 284 283 282 282 281 280 279 277 277 278 277 276 275 274 274 274 274 274 273 273 273 272 272 271 270 270 270 269 268 267 266 266 265 266 266 266 266 266 265 265 265 265 265 265 265 264 264 263 263 263 264 264 264 265 265 265 266 266 266
295 295 295 294 294 295 295 294 293 291 290 289 288 287 287 287 288 287 287 288 288 288 287 285 284 284 284 283 282 282 281 281 280 278 277 277 278 276 275 274 274 273 274 273 273 272 272 271 270 270 269 269 269 268 267 266 266 265 265 265 265 266 266 265 265 265 265 265 264 264 264 264 263 263 263 263 263 263 264 264 264 265 265 265 266 266
294 294 295 294 294 296 295 292 291 291 292 293 291 287 286 287 287 287 287 287 287 286 285 284 284 284 283 282 282 281 281 280 279 277 277 277 277 276 275 273 273 273 273 272 272 272 271 270 269 268 268 268 267 266 266 265 265 264 264 265 265 265 265 264 264 264 264 264 264 264 263 263 262 262 262 263 263 263 264 264 264 264 265 265 265 266
293 294 294 292 294 297 294 290 292 295 297 295 289 286 286 287 286 286 287 287 286 284 284 284 284 283 282 282 281 280 280 279 278 277 277 277 276 275 274 273 273 272 272 272 271 271 270 268 268 268 267 266 266 265 264 264 264 264 264 265 265 264 264 264 264 264 263 263 263 262 262 262 262 262 262 263 263 263 263 263 264 264 264 265 265 266
296 295 293 291 293 295 293 292 295 299 296 290 287 286 286 286 286 286 287 287 286 284 283 284 283 282 282 281 280 280 279 278 277 277 276 276 275 274 273 272 272 271 271 271 270 270 269 267 267 267 266 265 264 264 263 263 263 263 264 264 264 263 263 263 263 263 262 262 261 261 261 261 261 262 262 262 263 263 263 263 263 264 264 264 265 265
295 295 293 292 293 294 293 292 295 297 292 287 286 287 286 286 286 286 287 287 285 283 283 283 282 282 281 280 280 279 279 278 277 276 276 275 274 273 272 271 271 271 271 270 269 269 268 267 266 265 264 263 263 263 262 262 263 263 263 264 263 263 263 263 262 262 261 261 261 261 261 261 261 262 262 262 262 262 262 263 263 263 264 264 265 265
294 295 293 292 294 294 292 292 293 293 292 289 288 287 286 285 286 285 286 286 284 283 283 282 282 282 280 280 280 279 278 276 275 275 275 274 274 273 272 271 271 271 270 269 268 268 267 266 265 264 263 262 262 262 262 262 262 263 263 263 263 262 262 261 261 260 260 260 260 260 260 261 261 261 261 261 261 262 262 262 263 263 264 264 265 265
291 293 294 293 294 293 292 292 292 294 296 292 287 286 285 285 285 285 286 286 284 283 283 282 282 281 280 280 280 278 276 274 273 273 274 274 273 272 272 271 271 269 268 268 267 267 266 265 264 263 262 262 261 262 262 262 262 263 263 262 262 261 260 260 260 260 259 259 260 260 260 260 261 261 261 261 261 261 262 262 263 263 264 264 265 265
291 292 293 295 295 293 292 292 293 296 296 290 285 285 286 285 285 285 286 286 285 283 282 282 281 280 280 279 278 277 275 272 272 273 273 273 272 272 271 271 269 267 267 267 266 266 265 264 263 262 262 261 261 261 261 262 262 262 262 261 260 260 259 259 259 259 259 259 259 259 260 260 260 260 260 261 261 261 262 262 263 263 264 264 265 265
296 294 293 294 294 292 292 292 292 293 292 288 285 285 286 285 285 286 286 286 285 283 282 282 281 280 280 279 277 276 274 272 272 273 273 272 272 271 271 269 267 266 266 266 266 265 264 263 262 262 261 261 261 261 261 262 262 262 261 260 259 259 259 259 259 259 259 259 259 259 259 259 260 260 260 260 261 261 262 262 263 263 264 264 265 265
298 295 292 293 292 292 292 293 292 292 291 288 286 285 285 286 287 286 285 285 283 282 282 281 280 280 279 277 276 274 273 273 273 273 272 271 271 270 269 267 265 266 265 265 265 264 263 262 262 261 261 261 260 260 261 261 261 260 259 259 258 258 258 258 258 258 258 258 258 259 259 259 259 259 260 260 261 261 262 262 263 263 264 264 265 266
296 294 292 292 292 292 293 292 293 293 289 285 286 286 285 287 287 285 284 284 282 282 281 280 280 280 278 276 275 274 273 273 272 271 271 271 270 269 268 265 265 265 264 264 264 263 262 262 261 261 260 260 260 260 261 260 259 259 258 258 258 258 258 258 258 257 258 258 258 258 258 258 259 259 260 260 261 261 262 262 263 264 264 265 266 267
293 293 294 294 292 291 293 293 295 296 290 284 286 287 285 286 286 284 283 283 282 281 281 280 280 279 277 275 274 273 272 272 271 271 270 270 269 267 266 264 264 264 264 263 263 262 261 261 261 260 260 260 260 260 260 259 258 258 258 257 257 257 258 257 257 257 257 257 258 258 258 258 259 259 260 260 261 262 262 263 263 264 265 265 266 268
292 292 295 295 292 291 294 296 296 296 290 285 286 286 284 284 284 282 282 282 281 281 280 280 279 278 276 274 272 272 272 271 270 270 269 268 267 266 264 264 264 264 263 262 262 261 261 260 260 259 259 259 260 260 259 258 258 257 257 257 257 257 257 257 257 257 257 257 258 258 258 258 259 259 260 261 261 261 262 263 263 264 265 266 267 269
293 293 294 294 293 293 293 294 293 291 289 286 285 285 284 283 283 282 282 281 280 280 280 279 277 276 274 273 272 271 270 270 270 269 268 267 266 265 264 263 263 263 262 262 262 261 260 260 259 259 259 259 259 259 258 257 257 257 257 257 257 257 257 257 256 256 257 257 257 257 258 258 259 260 260 261 261 261 262 263 264 264 266 267 268 270
292 290 290 291 292 292 290 289 289 289 288 287 285 285 284 283 283 282 281 281 280 280 278 277 276 274 273 272 271 270 270 269 269 268 267 266 265 264 263 263 263 262 261 261 261 260 260 259 258 258 258 259 259 258 258 257 256 256 256 256 257 257 256 256 256 256 256 257 257 257 258 258 259 260 260 261 261 262 262 263 264 265 266 267 269 271
290 288 288 290 291 291 290 290 290 288 287 285 284 284 284 282 282 282 281 280 280 278 277 276 274 273 272 271 270 269 269 269 268 267 265 265 264 263 263 262 262 261 261 261 260 260 259 258 258 258 258 258 258 257 257 256 256 256 256 256 256 256 256 256 256 256 256 257 257 257 258 258 259 260 260 260 261 262 262 263 264 265 267 268 270 271
291 288 289 289 289 289 290 290 288 286 286 285 284 284 283 282 282 281 280 280 278 276 276 275 273 272 271 271 270 269 268 268 267 265 264 263 263 263 262 262 261 261 260 260 259 259 258 258 257 257 258 257 257 257 257 256 255 256 256 256 256 256 255 255 256 256 256 256 257 257 258 258 259 259 260 260 261 262 262 263 264 266 267 269 270 271
289 288 290 289 288 288 289 289 287 286 287 286 284 283 282 282 281 280 279 278 276 275 274 273 272 271 271 270 269 268 267 266 265 264 263 263 263 262 261 261 261 260 260 259 259 258 258 257 257 257 257 256 256 256 256 256 255 255 256 256 256 255 255 255 255 256 256 256 257 257 258 258 259 259 260 260 261 262 263 264 265 266 268 269 270 271
289 291 291 290 291 291 291 289 286 286 287 285 284 283 282 281 280 279 278 277 275 274 273 271 271 271 270 269 269 268 266 265 264 264 263 262 262 261 261 261 260 259 259 259 258 257 257 256 257 257 257 256 255 256 256 255 255 255 255 255 255 255 255 255 255 255 256 256 256 257 258 258 259 259 259 260 261 262 263 265 266 267 268 269 270 271
290 292 292 291 292 292 290 288 285 285 285 285 284 283 281 279 278 278 277 275 273 273 272 270 270 270 269 268 268 267 265 264 264 263 262 262 261 261 260 260 259 259 259 258 257 257 256 256 256 256 256 255 255 255 255 254 254 255 255 255 255 255 255 255 255 255 256 256 256 257 258 258 258 259 259 260 261 261 263 264 266 268 269 268 269 270
Wind_Speed
4 5 3 1 4 5 4 4 4 3 4 3 4 4 6 7 9 9 10 7 2 2 7 7 11 15 15 16 11 3 3 6 6 5 6 7 7 7 7 7 7 7 6 10 12 12 11 11 12 13 12 13 14 15 16 17 16 14 14 15 17 19 20 20 21 21 21 21 22 23 23 25 26 27 27 27 27 28 28 25 25 26 26 26 27 25
5 5 0 5 6 5 3 3 4 2 2 1 3 5 6 5 9 11 10 8 2 1 6 5 10 17 14 14 9 5 2 4 5 7 7 9 9 7 8 9 7 6 6 8 9 9 9 10 10 12 13 13 15 15 14 14 11 10 14 17 18 19 19 19 19 19 20 21 22 24 25 27 28 28 28 29 30 31 30 28 27 27 26 27 26 24
5 2 4 5 3 2 3 4 3 1 1 2 2 3 6 5 7 10 7 3 3 1 8 8 11 16 14 10 5 6 5 4 4 7 9 10 10 7 8 9 7 6 5 5 5 6 7 8 9 9 11 12 13 12 11 10 8 11 16 17 17 18 18 19 19 19 21 22 23 23 25 27 29 29 29 31 32 32 31 29 27 26 26 27 26 26
3 2 4 2 2 3 2 3 3 2 2 2 3 3 6 5 4 6 6 3 1 3 10 11 10 12 8 4 4 6 5 4 3 4 7 7 9 8 8 8 6 7 5 5 4 5 6 7 7 7 9 10 11 10 7 7 7 12 16 15 16 17 17 19 20 20 22 23 23 24 25 27 28 29 30 31 32 31 29 28 27 27 28 28 29 29
3 5 2 3 3 2 2 4 4 4 5 4 4 4 7 8 4 6 9 11 7 3 4 7 9 8 4 2 3 5 5 6 6 7 8 6 7 8 7 7 6 6 5 5 5 6 6 5 4 6 8 9 10 7 4 6 9 12 14 13 14 16 17 19 20 21 21 22 24 25 27 28 27 28 28 29 29 29 29 29 29 30 30 31 30 29
4 3 2 2 4 4 3 4 1 2 5 5 5 6 8 8 7 9 11 12 10 4 1 5 7 7 3 2 3 4 6 6 6 6 8 7 8 7 7 6 5 6 6 5 5 5 4 3 4 7 8 9 9 6 4 8 11 12 13 13 14 16 17 19 20 20 20 21 23 24 25 25 25 24 25 26 29 30 31 30 30 30 31 31 30 29
2 2 3 2 3 5 5 4 2 2 5 6 4 3 5 6 7 12 12 7 6 7 3 2 2 7 6 4 4 3 5 7 5 6 7 6 6 6 5 5 5 6 5 4 4 3 3 3 5 8 9 10 10 7 6 10 12 13 13 13 15 16 17 18 19 19 20 21 22 23 23 23 23 23 25 28 30 31 31 29 29 30 30 30 30 29
2 5 5 5 4 5 4 4 2 3 4 6 3 2 6 9 11 14 11 5 5 7 4 1 2 5 6 3 2 2 6 6 5 6 5 5 6 6 5 5 6 5 4 3 2 2 2 6 9 11 12 12 11 9 9 11 13 14 14 14 16 16 17 18 19 19 20 21 22 23 23 23 24 25 29 32 33 31 29 28 29 30 31 30 29 28
1 4 4 5 5 4 2 3 3 3 1 6 4 3 7 10 12 11 9 7 3 4 6 3 2 3 7 2 2 2 5 3 2 4 4 5 5 5 5 6 5 4 3 2 2 3 6 10 12 14 16 15 12 11 11 13 14 15 14 15 17 17 18 19 19 20 20 21 22 23 24 25 26 29 32 34 33 31 29 29 30 32 34 34 31 29
1 1 1 1 1 2 4 5 4 4 4 7 7 7 8 9 8 5 4 5 2 1 5 6 2 1 8 3 2 2 3 1 2 3 3 3 4 5 5 5 3 3 3 2 4 7 10 14 16 17 18 17 14 13 13 15 15 15 16 17 18 18 18 18 19 20 20 22 23 24 25 27 30 33 34 34 32 32 31 32 33 33 34 32 28 27
4 2 2 2 1 3 3 5 4 5 4 6 7 7 7 5 1 2 1 1 3 2 5 5 2 1 6 3 2 2 2 3 3 4 3 3 5 5 4 2 2 4 4 4 6 10 15 17 18 19 19 19 17 14 14 15 16 17 18 18 18 18 18 19 20 21 22 23 24 25 26 28 31 33 33 33 32 32 32 31 31 30 28 27 27 28
7 3 0 2 1 2 2 4 2 1 1 5 5 5 8 5 3 4 3 4 3 6 5 2 2 1 5 3 1 3 4 1 4 5 4 4 4 3 2 2 3 4 5 6 7 10 14 16 17 18 19 19 17 14 15 16 18 19 19 18 17 18 19 20 21 22 23 24 24 26 27 29 31 31 31 31 32 32 31 31 30 30 29 29 29 28
6 3 3 4 1 1 2 4 4 4 4 6 4 5 8 6 5 5 6 4 2 8 5 2 2 2 5 3 1 2 5 6 6 6 6 5 3 4 5 4 4 6 7 8 8 9 10 13 15 17 18 18 16 14 16 17 19 19 19 18 18 18 19 20 21 22 23 25 26 27 29 29 30 31 31 32 33 32 31 31 31 31 32 28 24 24
5 5 4 4 2 1 3 3 5 5 6 7 3 3 4 3 6 7 6 5 6 10 6 2 1 5 5 2 1 1 5 6 7 7 6 4 3 6 7 5 6 8 9 9 9 9 10 13 17 18 19 18 16 14 17 19 20 21 21 21 20 20 21 21 21 22 23 24 26 27 28 29 31 32 34 33 33 32 31 30 31 32 30 25 24 27
3 5 4 3 2 3 4 3 0 3 5 4 2 3 2 1 3 6 4 5 9 13 10 1 1 4 5 2 3 3 5 5 6 5 5 5 3 5 7 6 8 10 9 9 10 10 12 16 19 19 20 20 16 14 17 20 22 23 24 22 20 21 22 22 22 22 23 25 26 26 27 30 32 34 34 33 31 31 31 32 32 31 28 27 29 31
1 5 5 3 2 2 3 0 1 1 3 2 2 3 2 1 2 4 5 5 7 11 8 2 1 3 1 1 2 4 5 4 3 4 7 7 5 5 7 8 9 9 9 9 9 10 14 20 21 20 22 19 13 14 19 22 24 24 24 22 20 21 22 22 22 23 25 25 25 27 29 32 33 33 34 34 33 33 33 32 30 29 29 30 31 29
1 5 7 6 4 1 1 2 1 3 2 1 2 2 4 3 5 2 8 4 4 9 7 2 3 4 1 0 1 2 2 2 2 6 7 6 7 8 8 9 9 10 9 9 9 11 16 20 21 21 20 14 11 17 21 23 25 25 24 22 21 22 23 22 22 23 24 24 26 29 30 33 34 34 35 35 34 33 30 28 27 27 28 27 27 26
1 6 7 4 4 3 1 1 2 2 2 2 2 4 4 0 4 2 4 5 5 8 7 5 8 8 6 3 1 1 3 5 6 9 9 9 11 12 12 12 13 12 11 12 13 14 17 20 21 20 15 11 14 20 22 24 25 25 25 23 22 23 23 23 22 23 24 25 27 29 31 34 35 35 34 32 30 28 26 25 25 25 25 25 26 27
1 4 7 1 2 7 3 4 4 4 2 1 2 2 2 4 5 3 2 6 7 8 8 10 12 7 4 3 1 3 7 9 9 11 12 14 15 14 14 14 15 14 12 13 14 13 15 18 17 15 13 15 19 22 22 24 24 25 25 23 22 23 23 23 23 23 25 26 27 29 31 35 35 33 30 27 25 24 24 25 25 25 25 24 24 24
1 1 5 3 3 7 5 4 4 5 4 3 3 3 3 2 3 1 1 3 4 6 9 13 13 5 2 2 3 5 8 8 9 11 13 15 15 14 14 14 15 14 13 14 14 12 13 14 14 14 16 18 20 21 22 23 24 25 24 22 22 22 22 23 23 24 26 28 29 31 33 34 32 29 26 24 24 25 25 25 24 24 23 21 22 23
1 1 4 6 5 5 4 2 1 3 5 4 3 4 5 3 2 2 2 0 1 5 7 10 12 6 1 2 4 5 7 6 7 11 12 13 15 15 15 15 14 14 14 15 13 11 11 13 15 18 18 19 20 21 22 23 24 24 22 20 20 20 21 22 24 25 27 30 31 32 32 31 29 26 24 23 24 24 23 23 23 22 23 24 25 26
1 1 3 6 6 4 4 2 1 1 3 1 1 3 3 2 3 6 6 2 1 3 5 8 12 8 2 2 4 4 4 4 7 13 14 14 16 17 17 17 16 16 16 15 12 11 12 15 19 20 19 21 22 23 23 24 23 22 20 19 18 18 20 23 25 28 30 31 31 31 30 28 26 24 23 24 24 23 22 22 23 23 23 24 24 24
0 1 2 5 5 7 8 3 2 1 2 3 1 0 1 1 3 3 6 6 4 5 5 6 10 7 2 2 4 4 5 8 11 17 17 16 18 20 19 19 17 17 16 15 14 15 17 19 22 23 22 23 23 23 24 24 23 21 17 16 17 19 22 25 28 31 32 32 30 29 27 25 24 23 23 23 22 22 22 23 23 22 22 22 22 22
1 2 2 5 5 6 5 1 2 1 2 2 2 2 2 2 1 3 6 5 4 5 3 4 9 6 1 2 2 3 11 15 16 18 19 19 18 19 19 18 18 17 16 15 16 18 21 22 23 23 21 20 21 22 24 25 22 16 14 16 20 22 24 27 31 32 32 31 28 25 25 24 23 23 22 22 22 22 22 22 22 22 22 23 23 23
2 1 3 5 7 6 5 4 3 3 4 3 3 2 4 6 6 3 3 2 1 4 4 7 10 7 4 6 7 11 18 19 18 18 18 18 18 17 17 16 17 17 16 17 18 19 20 21 22 21 19 19 22 25 27 24 17 14 15 18 22 23 26 30 32 32 31 28 24 23 24 24 23 22 22 22 21 21 22 22 23 23 24 25 25 25
2 1 2 3 5 8 8 7 8 8 7 4 4 5 7 8 8 5 3 4 4 6 6 6 9 11 14 14 11 13 19 21 20 19 19 18 17 17 17 15 15 15 16 20 20 18 19 20 21 22 20 22 26 28 24 18 16 18 19 20 22 24 28 32 33 31 28 23 21 23 25 24 22 22 22 21 21 23 25 27 28 29 28 27 26 25
2 1 2 4 4 5 8 10 11 10 9 9 10 9 7 6 6 5 4 4 7 10 8 7 12 19 21 16 12 15 21 20 20 21 20 18 18 18 16 13 14 15 17 20 19 17 19 19 20 23 24 26 28 24 19 18 19 22 22 23 25 27 29 31 31 27 23 21 22 25 25 23 23 22 20 21 24 27 30 32 32 30 27 24 24 24
3 2 3 4 7 9 10 13 14 11 10 11 10 8 7 6 5 5 3 6 8 9 9 12 18 22 21 17 15 19 21 20 20 21 19 19 20 18 14 14 17 19 20 21 20 19 19 17 19 25 28 27 23 21 21 21 22 23 24 25 27 29 30 31 27 24 22 22 24 25 24 23 22 20 21 26 29 31 33 33 29 25 23 21 21 22
4 2 3 2 7 10 10 13 13 9 7 5 4 5 7 7 6 5 5 8 6 7 11 19 23 20 17 16 18 21 21 20 21 19 18 22 22 17 15 18 20 21 21 22 20 19 19 19 21 26 26 23 23 23 23 24 23 24 25 26 28 30 30 27 24 23 23 24 25 24 24 23 20 20 25 29 31 32 32 28 24 22 22 22 22 22
3 3 3 1 7 11 11 12 11 8 6 2 3 3 6 6 5 6 7 8 9 11 16 20 20 16 12 14 18 20 19 18 18 18 20 25 22 16 17 20 21 20 21 21 20 20 20 21 22 23 24 25 25 25 25 24 24 26 27 28 30 30 27 24 24 25 25 24 24 24 25 23 20 22 27 29 30 30 28 24 23 23 23 22 22 23
1 3 1 1 5 10 9 8 8 8 5 1 2 3 6 7 6 5 6 9 12 16 16 15 14 11 9 13 19 19 18 18 18 20 24 23 18 17 19 20 20 21 21 20 21 22 20 19 21 24 25 27 28 27 24 24 26 27 28 30 31 28 24 24 26 25 24 23 24 26 25 23 23 26 29 30 29 27 24 23 24 24 23 23 23 23
3 2 2 4 4 8 5 5 12 13 2 5 1 5 6 7 8 8 9 11 13 15 15 12 9 9 11 16 19 19 20 22 20 21 23 19 15 17 19 20 21 21 21 21 23 21 16 16 20 24 27 28 28 26 26 26 27 28 30 31 29 25 24 25 26 24 24 24 25 25 25 26 29 31 30 29 27 25 24 24 24 24 24 24 24 24
2 1 3 3 3 8 6 9 15 12 3 3 2 4 6 8 9 9 11 13 9 6 8 7 7 12 17 19 20 21 21 21 19 19 20 17 15 17 18 19 21 21 21 23 21 17 14 17 22 26 27 27 26 26 27 28 28 29 31 30 26 24 25 26 25 23 24 24 24 26 28 31 32 31 29 27 25 25 25 24 24 25 24 24 24 24
3 2 2 0 1 8 11 12 11 6 6 2 4 2 8 10 9 10 14 15 7 4 5 9 12 18 20 18 20 23 21 18 18 17 16 13 13 15 18 19 20 21 23 22 18 15 16 20 24 26 25 25 26 27 29 30 29 30 30 26 24 25 25 25 24 23 24 25 26 29 31 31 30 29 28 26 25 25 25 25 25 25 24 24 24 23
2 2 2 1 1 5 7 11 10 7 4 3 6 4 7 7 9 14 18 13 6 7 11 14 17 20 20 19 20 20 19 19 18 15 13 12 13 15 18 20 21 22 22 19 17 17 20 24 26 25 24 25 29 31 30 30 30 29 27 25 24 25 25 24 24 24 25 27 29 31 31 29 28 27 27 27 27 27 27 26 25 25 25 24 23 23
1 1 1 1 1 3 4 6 5 7 4 3 3 3 5 6 10 17 18 8 3 6 12 14 17 20 19 22 22 18 17 18 16 11 10 13 15 15 17 19 20 21 20 18 18 20 23 26 24 23 24 28 32 31 29 30 30 28 26 25 25 25 25 24 24 25 27 29 30 31 30 28 28 27 27 28 28 28 27 26 26 26 26 25 24 23
3 2 1 2 1 2 5 4 5 7 5 3 2 5 5 6 7 10 12 6 2 5 12 14 18 20 20 22 22 19 17 16 13 10 10 14 17 18 20 21 21 23 24 22 21 22 24 25 22 22 28 32 31 29 29 31 29 26 25 25 25 25 25 25 26 28 29 30 31 30 29 28 28 28 29 30 29 29 28 27 27 27 26 24 25 25
3 2 1 2 2 2 3 6 5 6 5 0 3 7 6 8 9 7 7 5 2 8 15 16 18 22 22 20 18 18 16 14 13 11 12 17 19 20 24 25 24 27 29 26 23 23 23 23 23 24 27 28 28 28 30 31 28 25 25 25 24 25 26 28 29 29 30 31 32 31 30 28 28 28 30 30 29 29 29 28 29 28 26 25 25 26
5 2 4 2 2 2 2 3 4 6 4 2 4 8 6 9 13 10 6 4 4 12 17 17 19 21 21 18 16 15 13 12 12 12 13 18 20 22 24 23 25 28 28 27 27 24 23 24 25 27 28 27 28 30 30 29 27 25 24 24 25 27 28 29 29 29 31 33 32 31 30 29 28 29 30 30 30 30 31 31 30 28 28 27 25 27
5 4 4 3 2 1 1 2 3 5 4 1 6 9 8 9 9 8 9 9 10 15 17 16 19 21 18 14 14 13 10 9 12 13 16 20 23 25 23 21 26 29 27 28 29 24 24 26 25 27 28 27 29 31 29 28 26 23 23 25 27 29 29 28 30 32 34 34 32 30 30 29 30 31 31 31 32 32 32 30 29 29 30 30 28 28
3 2 2 1 3 3 3 3 4 5 4 4 8 8 9 10 6 4 7 10 12 16 16 15 19 20 13 10 11 10 9 10 13 15 18 22 23 24 23 23 26 26 25 29 29 24 26 27 24 25 27 27 29 30 28 27 25 23 25 27 29 29 28 29 32 35 35 33 31 31 31 31 32 32 32 32 32 33 32 30 29 31 31 30 29 29
2 2 2 1 2 3 3 3 4 5 4 3 7 5 5 9 7 4 6 9 11 14 15 16 18 15 10 10 11 10 12 14 15 15 17 20 20 20 22 27 28 24 25 30 27 23 26 26 24 26 28 27 29 29 27 26 26 26 28 29 29 29 30 32 34 36 36 34 32 33 34 34 34 33 32 31 30 30 32 31 30 30 29 27 27 27
2 1 3 3 2 1 2 1 3 4 2 5 10 7 6 6 5 6 8 10 11 12 13 14 14 11 10 12 13 13 15 16 15 16 17 18 17 19 23 27 26 23 26 28 24 23 26 26 25 27 28 28 29 27 25 25 26 28 30 29 30 31 31 33 35 36 36 34 34 35 35 35 35 33 31 30 29 29 30 30 29 29 27 25 25 25
2 2 2 3 1 1 2 1 2 4 3 4 7 4 1 0 2 4 7 8 9 10 11 10 10 10 11 12 13 14 15 15 15 17 16 14 15 20 24 25 24 23 26 26 22 23 26 26 25 28 29 29 28 25 24 25 27 29 30 29 31 33 32 34 37 37 36 35 35 36 36 35 35 33 30 30 30 29 29 29 29 28 26 25 24 22
4 5 3 3 3 2 4 6 7 7 4 2 3 1 1 1 2 3 5 7 7 8 8 7 9 11 11 12 13 12 12 13 15 16 14 11 14 20 23 23 23 24 26 26 24 25 26 26 26 29 29 28 27 25 25 28 29 30 30 31 33 32 32 37 39 37 35 35 35 36 36 35 34 31 30 30 29 28 28 28 28 27 27 26 24 21
4 4 3 1 3 4 6 8 9 7 5 4 3 1 1 3 3 3 4 6 7 7 6 6 8 10 11 11 11 11 12 13 14 14 13 12 15 20 21 22 23 24 26 26 26 26 27 25 27 29 28 27 28 25 24 29 31 30 32 33 32 31 34 38 38 36 35 35 36 36 35 34 32 31 31 31 30 27 26 25 25 26 26 26 24 22
2 2 3 2 2 3 4 6 5 3 4 5 2 1 1 4 3 3 4 6 6 6 8 8 9 11 11 9 9 11 13 13 13 14 13 12 15 19 21 22 23 25 25 26 26 27 26 25 27 29 26 26 28 26 24 30 34 32 32 32 30 32 37 38 36 35 35 35 36 35 34 32 31 31 32 32 31 29 27 25 24 23 23 23 22 22
1 2 2 4 3 2 6 8 5 4 6 5 1 1 2 4 4 4 5 6 6 7 10 12 12 11 10 9 10 11 12 12 12 12 12 12 15 19 20 21 24 25 25 25 25 26 26 26 28 28 25 25 28 27 27 32 35 33 30 30 31 35 37 36 35 35 34 34 34 34 31 29 29 30 31 32 32 30 28 26 25 23 22 21 20 21
3 2 2 3 3 5 8 7 5 5 6 4 1 1 2 3 3 4 5 4 5 6 8 11 12 11 9 10 12 12 10 10 12 13 13 14 16 19 21 23 24 24 25 25 25 26 26 27 28 27 23 24 28 28 28 32 34 32 30 30 33 36 37 36 36 34 33 33 33 31 30 29 28 29 30 31 32 31 29 26 23 22 22 21 20 21
3 3 2 0 3 5 5 2 1 4 6 4 2 1 1 1 3 4 4 4 5 6 6 8 10 10 9 11 13 12 8 8 13 16 15 15 16 19 22 24 24 24 24 24 25 26 27 27 28 26 24 26 29 29 29 32 34 32 30 31 34 37 37 37 35 33 32 32 31 30 29 28 28 29 29 29 30 31 31 29 24 20 19 21 23 23
5 5 4 2 4 7 6 2 4 2 5 5 3 2 0 1 3 4 4 5 5 7 7 7 8 9 9 11 14 12 9 11 16 18 17 16 18 20 22 23 24 24 23 23 25 27 27 28 27 25 25 28 29 28 30 33 34 32 31 33 35 37 37 37 34 32 31 31 30 29 28 27 28 29 28 28 28 27 27 29 28 24 20 21 24 24
Wind_Direction
66 55 46 253 252 259 248 197 187 188 186 245 272 262 269 274 282 278 271 277 49 323 261 217 246 264 274 284 295 316 203 217 222 171 147 157 155 159 149 133 136 131 141 144 127 115 103 93 85 68 52 38 26 16 12 13 18 30 25 9 1 358 354 352 349 345 341 336 331 326 322 320 319 319 318 316 313 311 308 302 298 300 304 306 307 303
63 66 346 235 228 232 237 180 169 169 168 262 268 283 293 263 274 277 271 291 30 307 267 232 267 278 282 289 305 2 339 248 215 180 166 160 157 159 144 135 136 131 137 139 124 114 102 92 84 61 44 31 16 10 9 14 24 20 4 358 354 352 350 347 345 342 339 336 333 329 325 324 322 322 322 319 316 314 309 304 303 306 309 310 308 300
38 61 268 257 208 154 71 100 133 174 218 253 265 300 306 290 291 279 257 295 58 295 288 294 292 288 290 298 339 18 337 284 239 182 165 160 156 150 140 137 136 133 129 124 114 104 93 85 78 54 33 20 6 2 8 16 20 358 350 350 347 345 343 341 342 342 339 336 334 329 326 326 324 324 323 318 314 312 308 305 306 309 310 310 307 299
12 282 262 242 150 145 37 34 83 32 345 266 282 307 296 304 329 294 278 314 52 247 287 305 300 289 299 333 36 21 359 355 359 124 130 143 146 140 137 132 129 132 122 107 95 74 70 71 66 39 12 1 354 353 4 12 359 344 343 342 339 338 337 339 342 341 338 334 332 330 329 329 326 323 320 315 310 307 304 304 305 307 306 305 302 296
274 266 207 92 70 112 318 342 62 32 338 287 257 254 278 297 287 268 293 311 308 269 292 325 311 297 332 26 7 0 23 33 27 74 87 89 111 116 115 108 107 112 101 86 75 53 52 59 40 4 341 337 339 333 335 350 342 335 335 333 331 333 335 338 340 338 336 333 332 333 332 330 327 321 317 312 308 305 303 303 304 303 302 301 297 290
280 262 165 55 30 54 6 324 47 48 341 312 263 227 250 292 294 279 302 321 323 308 339 18 334 300 327 18 346 355 31 34 24 63 83 90 101 103 103 98 89 88 82 74 71 57 43 28 343 322 312 312 316 300 288 328 331 327 328 327 326 330 333 335 336 336 335 333 333 333 331 328 323 317 313 309 306 305 303 302 303 302 302 299 293 286
301 352 73 50 9 20 6 322 274 102 22 322 268 203 245 291 299 291 305 321 312 295 278 68 304 278 302 354 1 8 50 51 40 61 77 91 94 92 96 92 84 81 78 75 69 55 20 329 294 286 284 291 296 276 274 310 320 322 322 321 323 326 329 331 333 334 333 331 330 329 324 320 315 309 306 306 305 304 302 301 302 302 301 297 289 281
309 352 23 28 8 4 359 331 261 131 26 297 246 44 317 303 294 289 298 280 270 306 308 175 182 266 288 315 329 34 75 63 58 72 73 82 84 85 88 80 81 79 69 60 33 7 298 282 276 277 280 285 286 272 278 304 314 316 316 315 319 322 325 328 330 330 330 329 326 324 320 316 312 309 308 309 308 305 302 300 301 302 300 296 287 281
302 358 357 358 359 359 319 281 214 153 302 278 274 320 290 283 279 279 288 276 288 349 314 297 99 285 285 289 337 28 85 86 122 108 81 82 81 75 74 65 67 63 42 23 315 272 266 277 280 283 284 282 278 272 283 302 308 311 312 312 315 318 321 325 327 327 327 326 324 321 319 316 315 314 313 311 309 306 304 303 302 302 299 293 286 281
302 315 237 85 21 266 265 254 202 172 257 285 305 302 276 265 267 274 282 284 332 49 279 291 82 315 298 323 21 12 85 172 192 125 83 76 66 56 67 58 32 0 342 315 285 269 269 277 280 284 282 276 274 274 281 294 301 307 310 309 310 312 316 322 325 325 326 326 325 323 320 319 318 317 315 312 309 306 304 302 300 299 295 289 284 284
309 297 200 108 168 212 272 269 209 188 254 314 334 319 303 284 286 50 352 341 6 279 260 269 126 71 307 314 73 339 290 227 176 107 84 57 48 45 53 34 335 315 304 285 279 275 274 277 280 283 279 272 272 273 276 289 299 305 307 306 304 307 315 322 324 325 326 327 326 323 321 319 317 316 313 311 308 306 303 300 299 298 294 290 289 290
334 3 225 312 256 152 344 297 273 153 334 357 351 333 333 330 25 21 351 41 24 290 283 250 134 140 279 291 69 317 312 232 129 109 89 51 40 14 329 307 296 290 287 279 276 277 276 279 281 282 280 273 268 270 278 291 299 300 300 299 296 302 314 320 323 324 325 326 325 322 320 317 315 313 311 309 306 304 303 301 300 299 296 292 288 288
334 318 294 315 305 72 0 307 329 4 16 11 6 8 360 346 355 343 331 358 270 276 294 82 61 279 267 295 309 337 14 54 77 87 79 51 12 316 295 285 288 283 283 283 280 282 282 285 286 286 285 276 264 271 286 294 297 297 298 299 296 302 312 318 321 323 324 324 323 321 319 317 314 312 309 307 304 302 300 299 298 297 295 289 286 288
333 303 323 3 338 8 42 12 350 339 344 354 13 42 21 358 337 317 311 318 292 290 294 103 47 291 298 325 207 59 51 70 74 78 63 25 321 298 293 278 284 282 282 285 285 288 288 288 289 289 289 277 265 280 296 301 305 305 304 303 300 304 313 318 319 321 322 322 321 320 318 316 314 312 309 306 303 300 298 297 296 294 291 288 291 295
347 313 329 19 335 343 32 57 21 276 313 324 177 135 69 26 312 290 285 302 301 301 302 344 142 270 306 306 187 109 73 84 82 79 34 350 287 283 291 283 289 290 287 288 288 288 289 292 294 293 292 280 269 288 304 308 311 308 304 301 300 306 313 317 318 320 320 321 321 320 318 316 314 311 308 305 301 300 298 296 293 290 289 290 292 292
307 267 273 304 298 7 23 2 195 297 314 283 159 88 18 215 202 257 263 260 287 299 299 315 220 231 242 210 163 81 81 95 72 31 6 339 296 292 295 290 294 294 290 289 291 292 295 299 299 295 291 282 281 307 313 313 311 305 301 299 300 306 312 315 317 319 321 321 321 320 318 316 313 310 307 304 302 300 297 294 292 289 289 288 288 287
341 273 289 329 336 59 111 267 331 358 323 318 22 337 280 198 149 257 289 293 329 310 298 310 299 296 354 247 157 93 94 94 7 353 351 331 317 317 312 310 309 308 308 305 304 303 303 304 300 295 292 288 304 317 314 312 310 305 301 299 301 307 312 314 317 320 321 322 320 319 318 316 314 311 307 304 302 301 298 294 291 290 288 287 288 290
281 281 300 347 325 288 195 74 18 8 3 24 337 293 285 7 107 102 302 320 329 300 291 311 313 316 331 322 179 109 4 353 340 341 342 336 336 332 326 326 322 320 321 316 312 310 309 307 301 300 301 306 315 314 310 309 309 306 302 299 303 308 312 315 319 321 321 321 321 319 317 317 315 311 308 304 303 302 300 298 296 295 294 293 293 294
164 291 307 11 283 292 327 62 10 337 7 46 276 294 16 343 337 15 326 311 318 303 296 307 311 312 304 301 76 37 352 347 339 343 346 339 337 331 326 326 324 324 322 318 319 316 315 315 316 321 321 317 316 312 309 308 308 307 302 299 304 310 313 318 321 322 322 322 321 318 317 316 314 311 308 306 305 305 304 303 301 298 296 296 296 296
114 299 296 296 300 310 339 40 349 320 338 359 334 352 31 292 277 299 284 305 325 309 304 308 312 317 281 304 73 44 355 346 338 341 340 332 329 326 326 325 323 324 323 323 324 326 333 338 338 331 317 311 313 311 310 310 308 305 300 300 307 312 316 320 323 326 325 323 320 318 317 316 313 310 308 307 307 307 305 303 302 301 301 303 303 301
7 128 264 290 323 341 345 7 5 314 322 349 0 343 342 324 260 272 279 87 23 308 309 309 308 316 13 39 84 56 0 342 331 332 329 324 325 325 326 326 325 327 327 328 334 340 345 337 323 315 310 311 315 315 315 313 309 304 300 304 311 317 323 327 329 329 325 322 319 317 317 315 312 310 309 310 309 307 306 306 306 306 306 303 301 299
351 163 246 298 330 331 295 270 130 273 263 241 335 316 313 319 344 336 319 323 68 299 295 294 297 309 23 79 100 71 359 321 319 329 329 327 330 330 331 332 331 330 330 336 344 340 329 325 322 319 315 317 319 318 319 318 315 309 306 312 322 329 334 334 332 328 323 320 318 317 317 314 312 312 312 313 312 309 309 309 308 306 303 301 298 297
177 117 249 274 269 265 271 274 64 35 183 162 151 280 206 83 48 354 300 304 314 298 286 274 285 304 19 117 130 93 1 340 337 338 336 333 334 334 333 332 330 332 338 344 344 334 328 331 331 323 315 315 319 322 325 325 321 317 319 332 340 340 338 335 331 325 321 319 317 317 317 314 313 314 314 314 313 312 311 310 309 308 306 306 304 303
53 64 323 286 263 257 268 4 58 31 44 27 353 55 68 20 18 217 249 299 306 287 313 300 289 303 53 166 168 21 354 348 343 340 336 333 333 333 330 330 333 339 345 345 340 336 332 330 328 322 314 316 324 329 329 325 324 333 349 353 346 340 336 333 328 324 320 318 318 319 320 317 316 315 314 314 314 314 314 314 316 317 316 315 312 309
334 3 358 340 333 322 329 359 338 315 5 349 303 7 33 3 343 286 256 0 294 267 318 313 294 303 328 322 341 356 348 342 337 335 335 332 331 330 329 334 342 345 346 343 340 338 334 331 329 324 322 329 335 330 325 326 342 7 6 353 344 337 333 331 327 324 321 319 320 323 323 320 318 317 316 316 317 319 321 323 322 321 319 316 311 308
303 316 83 54 348 327 320 320 314 317 334 325 300 344 11 3 354 346 336 352 314 291 307 297 288 302 318 328 348 354 342 335 332 334 335 332 331 330 332 342 349 347 345 343 341 339 335 331 328 328 334 337 331 325 328 350 14 10 355 346 342 336 330 328 326 324 322 321 324 326 324 321 319 318 319 322 328 331 329 327 323 317 312 308 304 302
68 310 188 168 201 260 272 278 294 312 316 308 314 339 3 2 4 29 21 334 310 307 306 298 303 310 320 333 348 344 336 333 333 336 334 334 334 332 338 349 349 347 346 343 340 335 332 330 331 336 336 329 326 335 359 17 11 356 348 343 338 333 328 326 325 324 324 327 329 326 323 321 320 322 329 335 337 334 330 326 321 314 308 303 300 299
77 301 255 196 217 245 260 274 291 304 297 296 317 346 357 348 5 31 353 296 310 318 308 313 318 315 320 334 340 335 334 334 334 334 334 334 333 336 347 352 346 348 348 341 334 331 332 335 336 333 329 329 343 7 16 7 356 350 347 341 335 331 328 326 326 326 329 332 330 325 323 322 325 332 339 338 334 331 327 323 317 312 309 306 303 302
110 259 255 216 256 264 267 274 282 285 279 298 354 358 343 339 349 350 298 279 300 306 299 311 318 316 319 331 334 332 333 333 331 333 338 336 334 342 352 348 347 350 344 335 332 334 337 338 335 334 340 353 8 11 2 353 350 348 344 340 336 331 328 328 329 331 333 331 328 327 326 326 332 341 339 334 331 327 323 319 313 312 312 309 307 305
136 257 249 251 285 283 279 276 278 279 279 340 43 350 329 328 309 292 278 280 297 297 297 308 313 314 320 328 329 329 331 330 330 338 341 335 335 347 350 347 350 346 335 332 336 338 340 343 347 355 5 8 2 355 352 350 349 346 342 339 335 330 329 333 334 333 332 330 330 331 330 329 335 339 334 329 326 322 319 317 315 313 312 310 307 306
18 307 292 63 310 293 280 269 281 292 280 162 84 346 331 325 314 306 309 316 316 307 307 316 315 310 321 330 328 329 332 332 337 344 339 331 336 349 349 347 346 336 331 336 338 338 343 354 2 4 2 355 348 348 352 350 346 344 340 336 333 329 332 337 335 332 331 332 333 333 332 335 336 333 328 325 321 319 319 318 316 313 311 310 307 305
28 330 345 47 345 292 290 323 316 311 302 133 63 349 346 337 340 341 328 320 315 313 321 332 324 316 329 334 331 332 334 335 339 341 332 327 341 351 348 344 339 334 336 339 338 342 354 5 2 355 350 348 349 352 353 347 342 340 336 333 331 331 336 338 334 332 333 333 333 334 338 338 332 326 324 323 320 319 320 318 315 314 311 308 307 305
90 350 327 24 328 294 322 341 314 310 11 92 286 333 355 350 341 328 317 317 318 329 337 332 321 328 334 334 331 331 334 336 339 337 328 328 344 349 344 339 336 336 339 338 341 352 5 3 355 349 349 352 354 354 349 342 337 335 332 330 332 336 339 336 333 334 336 335 337 338 337 333 327 323 322 322 321 321 321 319 317 314 311 308 307 305
94 38 309 177 306 302 320 331 316 324 8 325 203 83 6 343 328 316 318 328 353 57 353 329 331 332 331 332 331 330 333 336 335 329 324 333 346 344 340 339 337 337 339 341 348 359 2 357 352 350 353 357 353 347 342 338 336 334 332 333 338 340 337 334 335 339 340 340 340 336 330 326 324 324 323 323 324 323 321 319 316 314 312 309 307 305
72 8 308 177 189 278 317 351 350 350 4 198 169 78 8 322 315 323 327 338 17 19 348 340 335 329 327 329 330 329 331 331 328 323 326 342 351 344 340 341 339 337 340 346 354 356 353 350 350 353 357 355 348 342 340 339 338 335 335 339 341 339 337 337 341 344 343 339 335 330 326 325 325 326 325 325 324 322 319 317 314 313 311 309 305 303
116 21 314 208 221 291 348 23 343 305 323 134 154 5 352 336 340 336 331 343 69 6 349 339 327 327 330 329 330 332 331 327 321 321 337 350 351 347 342 339 338 338 344 352 354 351 349 348 352 358 356 349 344 342 341 339 336 335 337 340 340 340 343 345 345 343 339 335 331 329 328 328 328 327 326 325 323 319 317 315 313 311 310 307 304 302
121 104 12 332 355 355 333 317 250 273 317 46 6 330 334 335 337 326 318 324 84 5 349 337 326 332 335 330 331 336 333 327 321 327 350 352 348 348 342 336 337 341 346 350 350 348 346 348 355 358 351 346 343 342 339 335 333 335 338 340 343 346 349 347 343 338 335 333 331 330 329 329 329 327 326 323 320 317 315 314 312 311 309 306 303 303
71 87 104 334 342 81 346 320 314 316 319 283 307 319 322 314 315 307 289 287 12 1 349 340 333 334 333 331 336 338 335 333 326 327 346 348 345 344 338 336 343 345 344 344 345 347 348 351 355 352 347 345 342 339 337 334 333 337 340 343 349 351 348 343 338 336 334 333 331 329 329 328 327 326 324 321 318 316 314 313 312 311 311 307 302 302
33 35 108 79 343 42 26 323 315 312 292 197 288 316 331 318 317 322 302 283 357 359 348 341 335 333 332 334 340 341 338 334 322 322 339 343 340 338 336 341 349 346 342 342 341 344 351 353 351 346 343 343 341 338 337 335 335 340 346 350 352 348 343 339 337 336 333 331 329 328 328 328 326 325 323 319 317 315 314 314 314 313 313 311 305 302
22 7 45 37 309 267 268 261 249 255 249 294 332 332 332 308 307 336 331 322 349 353 344 339 333 329 333 338 340 339 337 325 315 320 333 335 332 333 339 349 347 339 341 342 338 344 354 352 347 345 342 340 339 338 337 337 340 347 353 353 348 343 340 338 336 335 332 329 329 328 328 327 325 324 322 319 317 318 318 317 315 316 318 318 313 310
356 339 12 358 263 244 224 237 270 258 241 310 324 317 317 312 316 12 329 315 336 341 335 333 329 328 337 344 336 331 323 314 312 318 327 330 330 334 344 349 341 336 341 340 337 348 358 350 344 345 341 338 338 337 337 343 351 354 351 348 344 340 338 336 334 333 331 329 329 328 327 327 326 325 324 322 321 321 321 319 319 320 322 320 316 315
333 315 320 306 265 256 218 229 290 275 217 281 309 303 351 349 339 329 311 314 329 330 327 329 327 330 341 340 330 323 315 316 320 322 326 330 333 339 344 341 336 338 343 339 339 351 355 347 343 342 339 339 339 336 339 352 359 354 347 345 342 338 336 335 335 333 331 330 329 329 329 329 329 329 328 327 326 324 322 323 325 325 323 320 319 320
200 274 307 288 244 296 319 318 327 295 256 356 349 353 33 17 322 301 316 323 324 323 325 327 327 336 344 332 324 322 318 320 325 326 328 333 338 341 341 336 335 339 342 341 344 352 350 345 342 341 338 339 339 338 346 357 357 349 344 341 339 336 335 336 335 334 332 331 330 330 331 331 332 333 332 331 330 327 325 327 330 329 328 327 327 326
207 168 266 276 239 26 343 233 238 276 288 21 14 359 24 309 290 316 322 317 320 324 327 328 329 338 340 328 322 323 321 322 325 326 330 337 340 339 336 333 336 341 341 341 348 354 350 344 340 339 338 338 339 343 353 356 351 345 342 338 337 337 337 337 336 335 334 333 332 332 333 334 335 336 336 335 334 331 329 331 333 333 334 334 332 330
221 187 193 233 218 208 238 242 261 287 305 30 49 84 159 281 322 341 317 305 313 323 329 334 332 333 336 329 323 323 323 322 323 326 331 336 335 334 333 331 336 341 339 337 343 349 346 342 340 338 337 338 341 346 352 353 348 343 340 337 337 339 338 337 337 336 334 334 334 334 335 336 338 339 338 337 337 335 333 334 335 335 336 337 337 336
232 178 144 184 250 263 259 257 272 294 316 345 5 85 80 349 333 333 316 307 312 324 335 342 333 329 330 329 324 322 321 321 322 326 331 331 329 331 332 331 335 339 338 336 340 343 342 340 340 337 335 339 343 344 349 353 348 342 338 337 338 339 339 338 337 336 335 335 335 336 338 338 339 340 340 340 341 339 336 336 335 333 334 338 340 340
266 166 147 199 267 311 283 261 270 293 296 306 315 153 7 341 317 303 312 312 319 334 339 341 338 329 325 325 327 321 318 322 327 328 329 329 328 330 332 333 335 338 338 337 339 340 340 340 339 335 334 341 343 342 346 351 347 341 338 338 339 340 339 339 337 336 335 336 336 338 340 340 339 339 340 342 342 341 340 340 339 335 334 337 338 338
214 153 196 214 209 231 262 272 294 299 273 273 258 123 327 315 292 293 309 314 333 343 336 334 335 328 322 327 329 320 318 325 330 328 326 327 329 330 331 333 335 335 336 337 339 340 340 339 336 333 335 343 344 340 342 346 344 340 339 340 340 340 340 339 338 336 335 337 338 339 340 340 339 340 340 341 342 341 340 340 340 337 335 336 337 335
135 151 191 213 237 254 264 281 316 313 280 261 171 172 274 279 278 293 302 311 339 347 333 326 325 321 322 329 327 322 320 324 328 328 326 325 327 329 331 333 334 334 335 337 339 340 339 337 334 332 337 345 344 340 341 343 341 340 341 341 341 342 341 340 338 337 337 338 339 340 340 340 340 341 341 340 342 342 342 342 341 337 335 339 342 339
152 197 199 11 293 275 272 272 325 313 292 267 240 280 304 299 299 309 319 335 351 347 330 319 316 318 326 331 329 327 322 321 328 329 327 324 327 330 331 333 334 334 334 337 339 338 337 337 334 333 339 344 341 339 341 342 340 340 342 342 342 343 342 341 339 338 338 340 340 339 339 339 340 341 342 342 342 343 345 348 350 348 344 342 344 345
189 195 176 172 241 266 278 223 169 227 271 270 287 315 26 27 324 322 339 353 347 335 331 327 322 325 331 333 334 335 332 329 331 331 327 326 328 329 331 333 334 333 334 338 339 337 336 336 335 335 340 342 339 338 342 342 340 341 342 343 344 344 343 342 340 337 337 339 338 338 338 338 339 341 342 343 343 343 343 346 350 354 356 353 350 350